Flag for Denmark Weather past 2 weeks in Copenhagen, Denmark

Now
55 °F

Clear.


Feels Like: 55 °F
Forecast: 55 / 71 °F
Wind: 1 mph from South

Location: Koebenhavn-Kastrup Airport

Current Time: Aug 2, 2015 at 6:30:44 AM

Latest Report: Aug 2, 2015 at 5:20 AM


Visibility: 10 mi

Pressure: 30.09 "Hg

Humidity: 88%

Dew point: 52 °F

Location of CopenhagenLocation

Historic Weather in Copenhagen — Graph

°F

Copenhagen temperature yesterday

Maximum temperature yesterday: 64 °F (at 1:50 PM)
Minimum temperature yesterday: 46 °F (at 4:20 AM)
Average temperature yesterday: 57 °F

Past Weeks' High & Low Weather Summary

 TemperatureHumidityPressure
High75 °F (Jul 21, 1:20 PM)100% (Jul 19, 11:50 PM)30.09 "Hg (Jul 19, 11:50 PM)
Low46 °F (Aug 1, 4:20 AM)36% (Jul 18, 4:20 PM)29.39 "Hg (Jul 28, 5:20 AM)
Average61 °F75%29.76 "Hg
* Reported Jul 18 4:20 AM — Aug 2 4:50 AM, Copenhagen, Weather by CustomWeather, © 2015

Note: Actual official high and low records may vary slightly from our data, if they occured in-between our weather recording intervals... More about our weather records

Advertising

Copenhagen weather history for previous 24 hours

 ConditionsComfort  
Time TempWeatherWind HumidityBarometerVisibility
4:50 AM
Sun, Aug 2
55 °FClear.3 mph82%30.09 "Hg10 mi
4:20 AM55 °FClear.5 mph94%30.09 "Hg10 mi
3:20 AM55 °FClear.2 mph88%30.09 "Hg10 mi
2:50 AM55 °FClear.6 mph82%30.09 "Hg10 mi
2:20 AM54 °FClear.2 mph88%30.09 "Hg10 mi
1:50 AM54 °FClear.2 mph88%30.09 "Hg10 mi
1:20 AM54 °FClear.6 mph88%30.09 "Hg10 mi
12:50 AM55 °FClear.7 mph82%30.09 "Hg10 mi
12:20 AM55 °FClear.7 mph82%30.09 "Hg10 mi
11:20 PM
Sat, Aug 1
55 °FClear.7 mph77%30.09 "Hg10 mi
10:20 PM55 °FClear.6 mph77%30.09 "Hg10 mi
9:50 PM55 °FSunny.5 mph82%30.09 "Hg10 mi
9:20 PM57 °FSunny.2 mph77%30.09 "Hg10 mi
8:50 PM59 °FSunny.5 mph72%30.07 "Hg10 mi
8:20 PM59 °FSunny.6 mph72%30.07 "Hg10 mi
7:50 PM59 °FSunny.7 mph72%30.07 "Hg10 mi
7:20 PM61 °FSunny.7 mph68%30.07 "Hg10 mi
6:50 PM61 °FSunny.9 mph68%30.07 "Hg10 mi
6:20 PM61 °FSunny.10 mph63%30.07 "Hg10 mi
5:50 PM63 °FSunny.10 mph59%30.07 "Hg10 mi
5:20 PM61 °FSunny.13 mph68%30.09 "Hg10 mi
4:50 PM61 °FSunny.14 mph68%30.09 "Hg10 mi
4:20 PM63 °FScattered clouds.13 mph64%30.09 "HgN/A
3:50 PM63 °FScattered clouds.13 mph59%30.09 "HgN/A
3:20 PM63 °FScattered clouds.13 mph59%30.09 "HgN/A
2:50 PM63 °FScattered clouds.14 mph59%30.09 "HgN/A
2:20 PM63 °FScattered clouds.12 mph59%30.09 "HgN/A
1:50 PM64 °FPassing clouds.14 mph56%30.09 "HgN/A
1:20 PM63 °FPassing clouds.1 mph56%30.09 "HgN/A
12:50 PM63 °FPassing clouds.5 mph56%30.09 "HgN/A
12:20 PM61 °FScattered clouds.5 mph59%30.09 "HgN/A
11:50 AM61 °FScattered clouds.6 mph63%30.09 "HgN/A
11:20 AM63 °FScattered clouds.8 mph64%30.09 "HgN/A
10:50 AM61 °FBroken clouds.6 mph63%30.09 "HgN/A
10:20 AM59 °FBroken clouds.9 mph68%30.09 "HgN/A
9:50 AM61 °FBroken clouds.7 mph68%30.09 "HgN/A
9:20 AM57 °FPartly sunny.7 mph77%30.09 "HgN/A
8:50 AM57 °FScattered clouds.9 mph77%30.09 "HgN/A
8:20 AM57 °FPassing clouds.7 mph72%30.07 "HgN/A
7:50 AM55 °FPassing clouds.6 mph82%30.07 "HgN/A
7:20 AM54 °FPassing clouds.7 mph88%30.07 "HgN/A
6:50 AM52 °FPassing clouds.5 mph88%30.07 "HgN/A
6:20 AM50 °FPassing clouds.5 mph88%30.07 "HgN/A
Weather by CustomWeather, © 2015

See weather overviewHow to use our weather pages